TimeEDT,TemperatureF,Dew PointF,Humidity,Sea Level PressureIn,VisibilityMPH,Wind Direction,Wind SpeedMPH,Gust SpeedMPH,PrecipitationIn,Events,Conditions,WindDirDegrees,DateUTC
12:53 AM,64.0,48.9,58,30.26,10.0,Calm,Calm,-,N/A,,Clear,0,2013-08-26 04:53:00
1:53 AM,63.0,51.1,65,30.25,10.0,Calm,Calm,-,N/A,,Clear,0,2013-08-26 05:53:00
2:53 AM,60.1,51.1,72,30.26,10.0,Calm,Calm,-,N/A,,Clear,0,2013-08-26 06:53:00
3:53 AM,60.1,50.0,69,30.22,10.0,Calm,Calm,-,N/A,,Clear,0,2013-08-26 07:53:00
4:53 AM,57.9,42.1,56,30.22,10.0,Calm,Calm,-,N/A,,Clear,0,2013-08-26 08:53:00
5:53 AM,57.0,42.1,57,30.21,10.0,Calm,Calm,-,N/A,,Clear,0,2013-08-26 09:53:00
6:53 AM,60.1,53.1,78,30.22,10.0,Calm,Calm,-,N/A,,Clear,0,2013-08-26 10:53:00
7:53 AM,62.1,57.0,84,30.22,10.0,Calm,Calm,-,N/A,,Clear,0,2013-08-26 11:53:00
8:53 AM,66.0,-9999,N/A,30.22,10.0,Calm,Calm,-,N/A,,Clear,0,2013-08-26 12:53:00
9:53 AM,71.1,-9999,N/A,30.21,10.0,West,8.1,-,N/A,,Clear,280,2013-08-26 13:53:00
10:53 AM,75.9,-9999,N/A,30.19,10.0,West,10.4,-,N/A,,Clear,280,2013-08-26 14:53:00
11:53 AM,80.1,46.9,31,30.16,10.0,West,11.5,-,N/A,,Clear,270,2013-08-26 15:53:00
12:53 PM,82.0,61.0,49,30.14,10.0,West,11.5,19.6,N/A,,Partly Cloudy,280,2013-08-26 16:53:00
1:53 PM,82.9,63.0,51,30.10,10.0,West,13.8,17.3,N/A,,Clear,260,2013-08-26 17:53:00
2:53 PM,84.0,63.0,49,30.06,10.0,West,15.0,18.4,N/A,,Partly Cloudy,260,2013-08-26 18:53:00
3:53 PM,84.0,62.1,47,30.02,10.0,WSW,13.8,20.7,N/A,,Clear,250,2013-08-26 19:53:00
4:53 PM,84.0,62.1,47,30.01,10.0,WSW,11.5,-,N/A,,Clear,240,2013-08-26 20:53:00
5:53 PM,82.9,63.0,51,29.99,10.0,WSW,12.7,-,N/A,,Clear,240,2013-08-26 21:53:00
6:53 PM,81.0,63.0,54,29.99,10.0,SW,8.1,-,N/A,,Clear,230,2013-08-26 22:53:00
7:53 PM,79.0,63.0,58,29.99,10.0,SW,9.2,-,N/A,,Clear,220,2013-08-26 23:53:00
8:53 PM,78.1,63.0,60,29.99,10.0,SW,8.1,-,N/A,,Clear,230,2013-08-27 00:53:00
9:53 PM,77.0,63.0,62,29.99,10.0,WSW,6.9,-,N/A,,Clear,240,2013-08-27 01:53:00
10:53 PM,75.0,64.0,69,29.98,10.0,West,5.8,-,N/A,,Partly Cloudy,260,2013-08-27 02:53:00
11:53 PM,75.0,64.0,69,29.96,10.0,West,4.6,-,N/A,,Clear,260,2013-08-27 03:53:00